YO6RK-13 Weather Reports


time (UTC)temp
C
wind
direction
speed
KPH
gust
KPH
rain 1hr
cm
rain 24hr
cm
rain mn
cm
humidity
%
barometer
mb
20260506115021 26 0 0.0 0.0 0.00 0.00 0.00 24 1011.2
20260506114539 26 0 0.0 0.0 0.00 0.00 0.00 24 1011.3
20260506114038 28 0 0.0 0.0 0.00 0.00 0.00 26 1011.4
20260506112517 26 180 0.0 0.0 0.00 0.00 0.00 28 1011.4
20260506112034 25 315 0.0 0.0 0.00 0.00 0.00 28 1011.4
20260506111549 25 315 0.0 0.0 0.00 0.00 0.00 29 1011.4
20260506110509 26 0 0.0 0.0 0.00 0.00 0.00 27 1011.5
20260506110035 26 225 0.0 0.0 0.00 0.00 0.00 29 1011.6
20260506105542 26 0 0.0 0.0 0.00 0.00 0.00 30 1011.6
20260506105033 26 315 0.0 0.0 0.00 0.00 0.00 30 1011.8
20260506104540 25 338 0.0 0.0 0.00 0.00 0.00 30 1011.8
20260506104016 26 45 0.0 0.0 0.00 0.00 0.00 30 1011.9
20260506103023 25 0 0.0 0.0 0.00 0.00 0.00 33 1011.9
20260506102522 25 0 0.0 0.0 0.00 0.00 0.00 33 1012.0
20260506102012 25 0 3.2 3.2 0.00 0.00 0.00 32 1012.1
20260506101028 25 315 0.0 0.0 0.00 0.00 0.00 33 1012.2
20260506100521 24 0 0.0 0.0 0.00 0.00 0.00 33 1012.3
20260506095033 25 68 0.0 0.0 0.00 0.00 0.00 32 1012.3
20260506094509 24 23 0.0 0.0 0.00 0.00 0.00 32 1012.3
20260506094041 24 23 0.0 0.0 0.00 0.00 0.00 32 1012.5
20260506093033 26 158 0.0 0.0 0.00 0.00 0.00 34 1012.4
20260506092510 25 135 0.0 0.0 0.00 0.00 0.00 33 1012.5
20260506091528 25 225 0.0 0.0 0.00 0.00 0.00 36 1012.5
20260506091023 25 23 0.0 0.0 0.00 0.00 0.00 36 1012.5
20260506090016 23 23 0.0 0.0 0.00 0.00 0.00 37 1012.6
20260506085516 23 23 0.0 0.0 0.00 0.00 0.00 39 1012.7
20260506085035 23 270 0.0 0.0 0.00 0.00 0.00 37 1012.7
20260506084517 22 270 0.0 0.0 0.00 0.00 0.00 38 1012.6
20260506084010 22 0 0.0 0.0 0.00 0.00 0.00 42 1012.7
20260506083534 22 23 0.0 0.0 0.00 0.00 0.00 45 1012.6
20260506083025 22 0 0.0 0.0 0.00 0.00 0.00 46 1012.7
20260506082516 21 293 0.0 0.0 0.00 0.00 0.00 48 1012.7
20260506082033 21 338 8.0 8.0 0.00 0.00 0.00 50 1012.8
20260506081525 21 338 0.0 3.2 0.00 0.00 0.00 52 1012.5
20260506081032 21 338 0.0 0.0 0.00 0.00 0.00 51 1012.6
20260506080533 21 23 0.0 0.0 0.00 0.00 0.00 51 1012.5
20260506073510 21 203 0.0 0.0 0.00 0.00 0.00 49 1012.9
20260506072534 20 315 0.0 3.2 0.00 0.00 0.00 50 1012.7
20260506072050 20 338 0.0 0.0 0.00 0.00 0.00 50 1012.7
20260506070524 20 293 0.0 0.0 0.00 0.00 0.00 54 1012.9
20260506062516 16 315 0.0 0.0 0.00 0.00 0.00 61 1012.9
20260506062023 16 0 0.0 0.0 0.00 0.00 0.00 62 1012.8
20260506061532 16 0 0.0 0.0 0.00 0.00 0.00 60 1013.0
20260506061031 16 23 6.4 6.4 0.00 0.00 0.00 58 1013.0
20260506060521 16 0 4.8 4.8 0.00 0.00 0.00 60 1013.0
20260506045025 12 270 0.0 0.0 0.00 0.00 0.00 72 1013.0
20260506044516 11 338 0.0 0.0 0.00 0.00 0.00 74 1012.9
20260506044037 11 338 0.0 0.0 0.00 0.00 0.00 75 1012.9
20260506043536 10 338 0.0 0.0 0.00 0.00 0.00 77 1012.9
20260506043018 10 338 0.0 0.0 0.00 0.00 0.00 79 1012.9
20260506042541 10 315 0.0 0.0 0.00 0.00 0.00 81 1012.9
20260506042031 9 248 0.0 0.0 0.00 0.00 0.00 82 1012.9
20260506041517 8 248 0.0 0.0 0.00 0.00 0.00 83 1012.9
20260506041030 8 248 0.0 0.0 0.00 0.00 0.00 84 1012.8
20260506040529 8 248 0.0 0.0 0.00 0.00 0.00 85 1012.9
20260506035520 7 315 0.0 0.0 0.00 0.00 0.00 86 1012.8
20260506035018 7 315 0.0 0.0 0.00 0.00 0.00 86 1012.8
20260506034519 7 315 0.0 0.0 0.00 0.00 0.00 86 1012.8
20260506033525 7 315 0.0 0.0 0.00 0.00 0.00 86 1012.7
20260506033017 7 315 0.0 0.0 0.00 0.00 0.00 86 1012.7
20260506032515 7 315 0.0 0.0 0.00 0.00 0.00 86 1012.6
20260506031531 7 315 0.0 0.0 0.00 0.00 0.00 86 1012.7
20260506030530 7 315 0.0 0.0 0.00 0.00 0.00 86 1012.7
20260506025536 7 315 0.0 0.0 0.00 0.00 0.00 86 1012.5
20260506025021 7 315 0.0 0.0 0.00 0.00 0.00 86 1012.6
20260506024536 7 315 0.0 0.0 0.00 0.00 0.00 86 1012.5
20260506024043 7 315 0.0 0.0 0.00 0.00 0.00 85 1012.5
20260506023534 8 315 0.0 0.0 0.00 0.00 0.00 85 1012.5
20260506023042 8 315 0.0 0.0 0.00 0.00 0.00 84 1012.4
20260506022533 8 315 0.0 0.0 0.00 0.00 0.00 84 1012.5
20260506022024 8 315 0.0 0.0 0.00 0.00 0.00 84 1012.4
20260506021514 8 315 0.0 0.0 0.00 0.00 0.00 83 1012.5
20260506021026 8 315 0.0 0.0 0.00 0.00 0.00 83 1012.4
20260506020529 8 315 0.0 0.0 0.00 0.00 0.00 84 1012.4
20260506020026 8 315 0.0 0.0 0.00 0.00 0.00 84 1012.3
20260506015525 8 315 0.0 0.0 0.00 0.00 0.00 84 1012.2
20260506014524 8 315 0.0 0.0 0.00 0.00 0.00 83 1012.4
20260506014018 8 315 0.0 0.0 0.00 0.00 0.00 83 1012.4
20260506013512 9 315 0.0 0.0 0.00 0.00 0.00 83 1012.5
20260506012529 9 315 0.0 0.0 0.00 0.00 0.00 82 1012.4
20260506011532 9 315 0.0 0.0 0.00 0.00 0.00 82 1012.3
20260506010514 9 315 0.0 0.0 0.00 0.00 0.00 81 1012.3
20260506010212 9 315 0.0 0.0 0.00 0.00 0.00 81 1012.3
20260506005037 10 315 0.0 0.0 0.00 0.00 0.00 81 1012.2
20260506004521 10 315 0.0 0.0 0.00 0.00 0.00 81 1012.1
20260506004011 10 315 0.0 0.0 0.00 0.00 0.00 81 1012.1
20260506003518 10 315 0.0 0.0 0.00 0.00 0.00 81 1012.1
20260506003026 10 315 0.0 0.0 0.00 0.00 0.00 80 1012.1
20260506002509 10 315 0.0 0.0 0.00 0.00 0.00 80 1012.0
20260506002026 10 315 0.0 0.0 0.00 0.00 0.00 79 1012.0
20260506001516 10 315 0.0 0.0 0.00 0.00 0.00 79 1012.0
20260506001022 10 338 0.0 0.0 0.00 0.00 0.00 78 1011.9
20260506000535 11 315 0.0 0.0 0.00 0.00 0.00 77 1011.9
20260506000030 11 315 0.0 3.2 0.00 0.00 0.00 77 1011.9
20260505235516 11 270 0.0 0.0 0.00 0.00 0.00 76 1011.7
20260505235040 11 248 0.0 0.0 0.00 0.00 0.00 75 1011.8
20260505234523 11 293 0.0 0.0 0.00 0.00 0.00 76 1011.8
20260505234018 11 338 0.0 0.0 0.00 0.00 0.00 76 1011.8
20260505233014 11 315 0.0 0.0 0.00 0.00 0.00 76 1011.9
20260505232522 11 315 0.0 0.0 0.00 0.00 0.00 76 1011.9
20260505232018 10 293 0.0 0.0 0.00 0.00 0.00 77 1012.0
20260505231546 11 315 1.6 6.4 0.00 0.00 0.00 76 1012.0
20260505231028 11 0 1.6 1.6 0.00 0.00 0.00 75 1012.1
20260505230511 11 315 4.8 4.8 0.00 0.00 0.00 75 1012.1
20260505230010 11 315 1.6 1.6 0.00 0.00 0.00 74 1012.0
20260505225518 11 315 3.2 3.2 0.00 0.00 0.00 75 1012.1
20260505224525 11 338 3.2 3.2 0.00 0.00 0.00 73 1012.1
20260505224032 12 315 0.0 0.0 0.00 0.00 0.00 72 1012.1
20260505223531 11 315 3.2 3.2 0.00 0.00 0.00 73 1012.0
20260505223022 11 293 6.4 6.4 0.00 0.00 0.00 73 1012.0
20260505222521 11 293 4.8 0.0 0.00 0.00 0.00 73 1012.0
20260505222022 11 23 3.2 3.2 0.00 0.00 0.00 74 1011.9
20260505221537 11 338 3.2 4.8 0.00 0.00 0.00 73 1011.9
20260505221021 12 315 1.6 1.6 0.00 0.00 0.00 72 1012.0
20260505220528 12 338 3.2 4.8 0.00 0.00 0.00 72 1012.0
20260505220019 12 0 0.0 0.0 0.00 0.00 0.00 71 1011.9
20260505215049 12 293 1.6 3.2 0.00 0.00 0.00 70 1011.9
20260505214517 12 293 1.6 1.6 0.00 0.00 0.00 69 1012.0
20260505214025 12 315 0.0 3.2 0.00 0.00 0.00 69 1011.9
20260505213014 12 338 0.0 0.0 0.00 0.00 0.00 70 1012.0
20260505212038 13 0 0.0 0.0 0.00 0.00 0.00 68 1012.1
20260505211513 13 293 0.0 0.0 0.00 0.00 0.00 68 1012.1
20260505211036 13 293 0.0 0.0 0.00 0.00 0.00 68 1012.1
20260505210012 13 293 0.0 0.0 0.00 0.00 0.00 69 1012.1
20260505205511 13 293 0.0 0.0 0.00 0.00 0.00 69 1012.1
20260505205028 13 293 0.0 1.6 0.00 0.00 0.00 70 1011.9
20260505204543 13 315 0.0 0.0 0.00 0.00 0.00 69 1011.9
20260505204034 13 315 0.0 0.0 0.00 0.00 0.00 68 1012.0
20260505203532 13 315 0.0 0.0 0.00 0.00 0.00 67 1012.1
20260505203037 14 315 0.0 0.0 0.00 0.00 0.00 66 1012.1
20260505202540 14 338 0.0 0.0 0.00 0.00 0.00 65 1012.0
20260505202040 14 315 0.0 0.0 0.00 0.00 0.00 65 1011.9
20260505201519 15 315 0.0 0.0 0.00 0.00 0.00 65 1011.8
20260505200516 14 293 0.0 0.0 0.00 0.00 0.00 66 1011.8
20260505195514 14 248 0.0 0.0 0.00 0.00 0.00 66 1011.8
20260505194512 14 248 0.0 0.0 0.00 0.00 0.00 66 1011.7
20260505193512 14 248 0.0 0.0 0.00 0.00 0.00 66 1011.7
20260505193029 14 248 0.0 0.0 0.00 0.00 0.00 66 1011.6
20260505192536 14 248 0.0 0.0 0.00 0.00 0.00 66 1011.6
20260505191544 15 248 0.0 0.0 0.00 0.00 0.00 65 1011.6
20260505191035 15 248 0.0 0.0 0.00 0.00 0.00 65 1011.6
20260505190523 15 248 0.0 0.0 0.00 0.00 0.00 64 1011.5
20260505190044 15 248 0.0 0.0 0.00 0.00 0.00 63 1011.6
20260505185510 15 248 0.0 0.0 0.00 0.00 0.00 63 1011.5
20260505185028 16 203 0.0 0.0 0.00 0.00 0.00 62 1011.6
20260505184534 16 203 0.0 0.0 0.00 0.00 0.00 61 1011.7
20260505184042 16 203 0.0 0.0 0.00 0.00 0.00 60 1011.5
20260505183534 16 203 0.0 0.0 0.00 0.00 0.00 60 1011.4
20260505183016 16 203 0.0 0.0 0.00 0.00 0.00 59 1011.4
20260505182541 16 203 0.0 0.0 0.00 0.00 0.00 59 1011.5
20260505182031 16 203 0.0 0.0 0.00 0.00 0.00 59 1011.3
20260505181530 16 248 0.0 0.0 0.00 0.00 0.00 60 1011.2
20260505181023 16 293 0.0 0.0 0.00 0.00 0.00 60 1011.3
20260505180529 16 293 0.0 0.0 0.00 0.00 0.00 59 1011.3
20260505180029 16 293 0.0 0.0 0.00 0.00 0.00 57 1011.1
20260505175536 17 293 0.0 0.0 0.00 0.00 0.00 56 1011.2
20260505175011 17 293 0.0 0.0 0.00 0.00 0.00 55 1011.0
20260505174034 18 293 0.0 0.0 0.00 0.00 0.00 51 1011.0
20260505173509 18 315 0.0 0.0 0.00 0.00 0.00 49 1010.9
20260505173034 19 315 0.0 0.0 0.00 0.00 0.00 47 1010.9
20260505172025 20 23 0.0 0.0 0.00 0.00 0.00 42 1010.9
20260505171032 21 45 0.0 0.0 0.00 0.00 0.00 36 1010.8
20260505170523 21 45 0.0 0.0 0.00 0.00 0.00 35 1010.7
20260505165535 21 45 0.0 0.0 0.00 0.00 0.00 35 1010.7
20260505165017 22 45 0.0 0.0 0.00 0.00 0.00 35 1010.6
20260505164542 22 45 0.0 0.0 0.00 0.00 0.00 36 1010.5
20260505164029 22 45 0.0 0.0 0.00 0.00 0.00 35 1010.5
20260505163525 22 45 0.0 0.0 0.00 0.00 0.00 34 1010.5
20260505162536 22 45 0.0 0.0 0.00 0.00 0.00 34 1010.7
20260505162028 23 45 0.0 0.0 0.00 0.00 0.00 33 1010.7
20260505161519 23 68 0.0 0.0 0.00 0.00 0.00 33 1010.8
20260505161027 23 68 0.0 0.0 0.00 0.00 0.00 32 1010.8
20260505160534 23 68 0.0 0.0 0.00 0.00 0.00 32 1010.8
20260505153022 23 203 0.0 0.0 0.00 0.00 0.00 32 1010.9
20260505152537 23 338 0.0 0.0 0.00 0.00 0.00 31 1011.0
20260505152013 23 338 6.4 6.4 0.00 0.00 0.00 30 1010.9
20260505151528 23 158 0.0 0.0 0.00 0.00 0.00 31 1011.0
20260505151028 23 158 0.0 0.0 0.00 0.00 0.00 30 1011.0
20260505140525 24 158 0.0 0.0 0.00 0.00 0.00 29 1011.6
20260505124031 24 0 0.0 0.0 0.00 0.00 0.00 29 1012.3
20260505123538 24 23 0.0 0.0 0.00 0.00 0.00 31 1012.3
20260505122513 24 23 0.0 0.0 0.00 0.00 0.00 31 1012.3
20260505121528 23 0 0.0 0.0 0.00 0.00 0.00 31 1012.5
20260505121035 23 315 6.4 6.4 0.00 0.00 0.00 29 1012.5
20260505120512 25 180 0.0 0.0 0.00 0.00 0.00 28 1012.6
20260505120039 25 158 0.0 0.0 0.00 0.00 0.00 29 1012.6